Notices

What's New in latest Release from April 7th, 2021:

- Updated Glossary, including Speed of Maximum Gust, and Total Hourly Precipitation

- Updated national and regional climate services offices contacts and prices information

- Addition of station inventory lists for 1981-2010, 1971-2000, and 1961-1990 Normals.

If you haven't already, please take our survey and provide feedback about our website: https://eccc.sondage-survey.ca/f/LanguageSelection.aspx?s=442ca660-fcf1-47c0-95a9-59707d6fd709

Hourly Data Report for November 12, 2020

MUSKOKA
ONTARIO
Current Station Operator: NAVCAN

44°58'29.000" N
79°18'12.000" W
281.90 m
6115529
71532
YQA

Download Data

Hourly Data (November 2020)
Hourly Data Report for November 12, 2020
TIME
LST
Temp Definition
°C
Dew Point Definition
°C
Rel Hum Definition
%
Precip. Amount Definition
mm

Wind Dir Definition
10's deg

Wind Spd Definition
km/h
Visibility Definition
km
Stn Press Definition
kPa
Hmdx Definition


Wind Chill Definition


Weather Definition


00:00 3.5 1.5 87 LegendMM 30 13 16.1 98.30     LegendNANA
01:00 3.5 1.2 85 LegendMM 29 18 16.1 98.33     LegendNANA
02:00 3.2 1.3 87 LegendMM 32 11 16.1 98.37     Rain
03:00 2.9 0.6 85 LegendMM 29 9 16.1 98.45     LegendNANA
04:00 3.1 0.5 83 LegendMM 30 8 16.1 98.50     LegendNANA
05:00 1.8 0.3 90 LegendMM LegendMM 4 16.1 98.61     LegendNANA
06:00 0.3 -0.6 94 LegendMM   0 16.1 98.63     LegendNANA
07:00 -1.3 -2.0 95 LegendMM 15 4 16.1 98.64   -3 LegendNANA
08:00 -2.0 -2.4 97 LegendMM   0 16.1 98.71     LegendNANA
09:00 3.0 -1.3 73 LegendMM 12 5 16.1 98.78     LegendNANA
10:00 4.6 -1.1 67 LegendMM 14 9 16.1 98.79     LegendNANA
11:00 5.7 -0.4 65 LegendMM 22 8 16.1 98.78     LegendNANA
12:00 5.8 0.1 67 LegendMM 25 11 16.1 98.72     LegendNANA
13:00 7.2 0.0 60 LegendMM 31 15 16.1 98.69     LegendNANA
14:00 8.0 0.0 57 LegendMM 28 11 16.1 98.66     LegendNANA
15:00 8.2 -0.7 53 LegendMM 28 8 16.1 98.63     LegendNANA
16:00 7.4 -2.1 51 LegendMM   0 16.1 98.58     LegendNANA
17:00 3.3 -0.9 74 LegendMM 27 5 16.1 98.54     LegendNANA
18:00 -0.1 -1.6 89 LegendMM   0 16.1 98.57     LegendNANA
19:00 -1.0 -2.3 91 LegendMM   0 16.1 98.60     LegendNANA
20:00 -2.2 -3.0 94 LegendMM LegendMM 4 16.1 98.59   -4 LegendNANA
21:00 -2.4 -2.8 97 LegendMM 17 4 16.1 98.60   -4 LegendNANA
22:00 -2.4 -3.0 96 LegendMM   0 16.1 98.57     LegendNANA
23:00 -3.0 -3.6 96 LegendMM   0 16.1 98.50     LegendNANA

Notes on Data Quality.

Legend

  • E = Estimated
  • M = Missing
  • NA = Not Available*
  • [empty] = Indicates an unobserved value
Date modified: